This is the latest recevied weather packets stored in our database for station/object KN6KDD. If no packets are shown the sender has not sent any weather packets the latest 10 day(s).
| Time | Temp. | Humidity | Pressure | Rain* | Wind** | Luminosity | Snow |
|---|---|---|---|---|---|---|---|
| 1777436843 | 14.44° C | 64% | 1359.3 hPa | 0 mm | - | 0 W/m² | - |
| 1777436540 | 14.44° C | 65% | 1359.5 hPa | 0 mm | - | 0 W/m² | - |
| 1777436236 | 13.89° C | 67% | 1359.3 hPa | 0 mm | - | 0 W/m² | - |
| 1777435933 | 14.44° C | 66% | 1359.2 hPa | 0 mm | - | 0 W/m² | - |
| 1777435629 | 14.44° C | 66% | 1359.6 hPa | 0 mm | - | 0 W/m² | - |
| 1777435324 | 13.89° C | 66% | 1359.5 hPa | 0 mm | - | 0 W/m² | - |
| 1777435024 | 13.89° C | 68% | 1359.5 hPa | 0 mm | - | 0 W/m² | - |
| 1777434720 | 13.89° C | 68% | 1359.5 hPa | 0 mm | - | 0 W/m² | - |
| 1777434420 | 13.89° C | 68% | 1359.7 hPa | 0 mm | - | 0 W/m² | - |
| 1777434118 | 13.89° C | 68% | 1359.6 hPa | 0 mm | - | 0 W/m² | - |
| 1777433815 | 13.89° C | 69% | 1359.5 hPa | 0 mm | - | 0 W/m² | - |
| 1777433511 | 14.44° C | 67% | 1359.3 hPa | 0 mm | - | 0 W/m² | - |
| 1777433206 | 13.89° C | 68% | 1359.6 hPa | 0 mm | - | 0 W/m² | - |
| 1777432903 | 14.44° C | 66% | 1359.3 hPa | 0 mm | - | 0 W/m² | - |
| 1777432602 | 14.44° C | 65% | 1359.6 hPa | 0 mm | - | 0 W/m² | - |
| 1777432300 | 15° C | 65% | 1359.3 hPa | 0 mm | - | 1 W/m² | - |
| 1777431998 | 15° C | 63% | 1359.2 hPa | 0 mm | - | 2 W/m² | - |
| 1777431695 | 15° C | 60% | 1359.1 hPa | 0 mm | - | 3 W/m² | - |
| 1777431391 | 15.56° C | 58% | 1359.1 hPa | 0 mm | - | 6 W/m² | - |
| 1777431087 | 15.56° C | 58% | 1359.2 hPa | 0 mm | - | 9 W/m² | - |
| 1777430783 | 16.11° C | 55% | 1359.2 hPa | 0 mm | - | 12 W/m² | - |
| 1777430480 | 16.11° C | 55% | 1359.2 hPa | 0 mm | - | 16 W/m² | - |
| 1777430175 | 16.67° C | 51% | 1359.1 hPa | 0 mm | - | 19 W/m² | - |
| 1777429870 | 16.67° C | 52% | 1359.2 hPa | 0 mm | - | 23 W/m² | - |
| 1777429567 | 16.67° C | 54% | 1358.8 hPa | 0 mm | - | 27 W/m² | - |
* Rain latest hour (hover to see other rain measurements)
** Current wind speed in m/s (hover to see current wind gust speed)